[Date Prev][Date Next][Thread Prev][Thread Next] - [Date Index][Thread Index][Author Index]

2 LIne ISS Keps 3-15



ISS
1 25544U 98067A   03074.20532347  .00016966  00000-0  22192-3 0  7838
2 25544  51.6355 132.2588 0008106 330.2518 149.2051 15.58713315246343


----
Via the sarex mailing list at AMSAT.ORG courtesy of AMSAT-NA.
To unsubscribe, send "unsubscribe sarex" to Majordomo@amsat.org



AMSAT Top AMSAT Home